Find OneWeb SL0210

NORAD ID: 48787 Int'l Des: 2021-045 Owner: ONEWEBN Country: UK Constellation: oneweb operational
LEOCIRCULARPOLARONEWEB_TYPE

リアルタイム位置

3D地球を読み込み中...

OneWeb SL0210について

説明を読み込み中...

次回通過

Passes for default location (London). Set your location on the main map for personalized predictions.

高度履歴

Loading altitude history...

軌道要素

1 48787U 21045W 26127.76561333 .00002826 00000-0 74670-2 0 9992
2 48787 87.8937 267.2408 0002452 72.9631 287.1768 13.15569633239003
Epoch: May 7, 2026 • Age: 5 hours

現在のステータス

高度 1204.1 km
速度 7.25 km/s
衛星直下点 9.00°N, 122.29°W
打ち上げ日 May 28, 2021
運用期間 4.9 years
タイプ internet

技術仕様

分類 Payload
質量 148.00 kg
乾燥質量 140.00 kg
総質量 148.00 kg
長さ 1.30 m
直径 1.00 m
スパン 5.00 m
形状 Trapezoid+2 pan
製造者 ONEWUS
バスタイプ ARROW
フェーズステータス In Orbit
所有者/国 ONEWEBN/UK

Most Searched